This demonstration page uses our WeatherBlox Daily Observations layout. Learn more.

38.89511, -77.03637

Hourly Observations for February 27, 2015

Temp ( °F °C ) Dew Point ( °F °C ) Humidity (%) Winds ( mph kmh ) Pressure ( in mb ) Visibility ( mi km ) Precip ( " mm )
12:52 am 00:52 Cloudy 34 1 21 -6 60 60 Calm 30.18 1022 10 16.09344 0 0
1:52 am 01:52 Cloudy 34 1 25 -4 70 70 Calm 30.21 1023 10 16.09344 0 0
2:52 am 02:52 Cloudy 32 0 23 -5 69 69 S 3 6 30.21 1023 10 16.09344 0 0
3:52 am 03:52 Cloudy 32 0 25 -4 75 75 S 5 7 30.21 1023 10 16.09344 0 0
4:52 am 04:52 Cloudy 32 0 25 -4 75 75 Calm 30.24 1024 10 16.09344 0 0
5:27 am 05:27 Cloudy with Light Snow 34 1 21 -6 60 60 NNW 3 6 30.27 1025 10 16.09344 0.001 0.001
5:39 am 05:39 Cloudy with Light Snow 34 1 25 -4 70 70 NNW 5 7 30.27 1025 8 12.874752 0.001 0.001
5:46 am 05:46 Cloudy with Light Snow 34 1 23 -5 65 65 NNW 3 6 30.27 1025 9 14.484096 0 0
5:52 am 05:52 Cloudy with Light Snow 34 1 23 -5 65 65 NW 6 9 30.27 1025 9 14.484096 0.001 0.001
6:52 am 06:52 Cloudy 34 1 21 -6 60 60 N 13 20 30.3 1026 10 16.09344 0.001 0.001
7:52 am 07:52 Cloudy 32 0 18 -8 55 55 NNW 17 28 30.36 1028 9 14.484096 0 0
8:52 am 08:52 Mostly Cloudy 32 0 12 -11 44 44 NNW 12 19 30.39 1029 10 16.09344 0 0
9:52 am 09:52 Mostly Cloudy 32 0 10 -12 40 40 NW 15 24 30.42 1030 10 16.09344 0 0
10:52 am 10:52 Mostly Cloudy 34 1 12 -11 41 41 NW 10 17 30.42 1030 10 16.09344 0 0
11:52 am 11:52 Mostly Cloudy 34 1 12 -11 41 41 NNW 17 28 30.45 1031 10 16.09344 0 0
12:52 pm 12:52 Mostly Cloudy 34 1 12 -11 41 41 NW 13 20 30.45 1031 10 16.09344 0 0
1:52 pm 13:52 Partly Cloudy 34 1 10 -12 38 38 N 12 19 30.45 1031 10 16.09344 0 0
2:52 pm 14:52 Partly Cloudy 34 1 10 -12 38 38 NNW 17 28 30.48 1032 10 16.09344 0 0
3:52 pm 15:52 Mostly Sunny 34 1 10 -12 38 38 NNW 15 24 30.5 1033 10 16.09344 0 0
4:52 pm 16:52 Mostly Sunny 34 1 9 -13 35 35 NNW 13 20 30.5 1033 10 16.09344 0 0
5:52 pm 17:52 Mostly Sunny 32 0 9 -13 37 37 NNW 13 20 30.53 1034 10 16.09344 0 0
6:52 pm 18:52 Clear 30 -1 10 -12 43 43 N 8 13 30.56 1035 10 16.09344 0 0
7:52 pm 19:52 Clear 30 -1 10 -12 43 43 N 8 13 30.56 1035 10 16.09344 0 0
8:52 pm 20:52 Clear 28 -2 10 -12 47 47 N 12 19 30.59 1036 10 16.09344 0 0
9:52 pm 21:52 Clear 28 -2 3 -16 34 34 NNW 17 28 30.65 1038 10 16.09344 0 0
10:52 pm 22:52 Clear 27 -3 3 -16 36 36 N 12 19 30.68 1039 10 16.09344 0 0
11:52 pm 23:52 Clear 25 -4 1 -17 36 36 N 10 17 30.68 1039 10 16.09344 0 0

Powered by AerisWeather